COSMOS 249 DEB, 3609

Orbit data source: Space-Track

COSMOS 249 DEB, 3609 is space debris in LEO originally from a launch on Sun, 20 Oct 1968 UTC launched from the Tyuratam Missile And Space Complex (TTMTR). Debris objects in space refer to the collection of defunct objects orbiting the Earth. Examples of debris include non-operational satellites, rocket bodies, and fragments generated from explosions, collisions, or faulty payload assembly.

Loading next visibility...
Identifier
3609, 1968-091AB
Orbit
LEO
Country
Flag of CISCIS
Related business
Manufacturer
Unknown
Mission
Spacecraft
Bus & Motor
Unknown
Mass
Unknown
Launch date (UTC)
1968-10-20 (58 years ago)
Launch vehicle
Unknown
Launch site
Tyuratam Missile And Space Complex (TTMTR)
Object type
Payload
Rocket body
Debris
Shape & HBR
Unknown shape, 0.1 m
Radar Cross Section
Medium (>0.1 m² and <1 m²)

Expand to show TLE details & history
Last TLE update: 21 hours ago

TLE from 21 hours ago
0 COSMOS 249 DEB
1  3609U 68091AB  26253.37413141  .00000712  00000-0  15544-3 0  9996
2  3609  62.2720 274.4628 0726154 155.2917 208.4807 13.66568991716532
Epoch: 2026-09-10T08:58Z
TLE epoch observation values (Epoch: 2026-09-10T08:58:44.953Z)
Latitude
-0.00007°
Longitude
150.3627°
Altitude
1,493.425 km
Speed
6.883 km/s
True Right ascension
18h 17m 51s
True Declination
0° 00' 00"
Sunlit
Object was in daylight at epoch
Visualization orbit readout
Latitude
Unknown
Longitude
Unknown
Altitude
Unknown
Speed
Unknown
Apparent Right ascension
Unknown
Apparent Declination
Unknown
Sunlit
N/A
Visualization observer readout
Local Sidereal Time
22:05:00
Azimuth
Unknown
Elevation
Unknown
Doppler factor
Unknown
Orbital elements
Apogee altitude
1,547.422 km
Perigee altitude
474.311 km
Semi-major axis
7,389.003 km
Eccentricity
0.07262
Inclination
62.272°
RAAN
274.4628°
Arg. of periapsis
155.2917°
True anomaly
204.80912°
Mean anomaly
208.4807°
Eccentric anomaly
206.61669°
Mean motion
3.41715 °/min
Orbital period
105.35 mins
BSTAR
0.00015544
Loading maneuver chart data...
Computing Atmospheric mass density...

Documentation

Showing up to 5 results
|